FW5692 Weather Reports


time (UTC)temp
F
wind
direction
speed
knots
gust
knots
rain 1hr
in
rain 24hr
in
rain mn
in
humidity
%
barometer
mb
20260507180346 90 326 2.6 8.7 0.00 0.00 0.00 50 1006.4
20260507175846 90 323 3.5 8.7 0.00 0.00 0.00 49 1006.3
20260507175610 90 326 3.5 11.3 0.00 0.00 0.00 50 1006.4
20260507174846 90 21 4.3 11.3 0.00 0.00 0.00 50 1006.4
20260507174346 90 32 4.3 10.4 0.00 0.00 0.00 50 1006.4
20260507173846 90 313 4.3 10.4 0.00 0.00 0.00 49 1006.4
20260507173345 90 19 5.2 14.8 0.00 0.00 0.00 49 1006.5
20260507172845 90 316 6.1 17.4 0.00 0.00 0.00 50 1006.5
20260507172346 90 326 7.0 17.4 0.00 0.00 0.00 49 1006.5
20260507171845 90 323 7.8 16.5 0.00 0.00 0.00 49 1006.4
20260507171345 90 29 7.8 16.5 0.00 0.00 0.00 49 1006.4
20260507171333 90 324 7.8 12.2 0.00 0.00 0.00 50 1006.4
20260507170400 90 0.0 0.0 0.00 0.00 0.00 50 1006.5
20260507011755 75 95 0.9 2.6 0.00 0.00 0.00 86 1017.6
20260507011248 75 96 0.9 4.3 0.00 0.00 0.00 86 1017.6
20260507010737 75 78 1.7 4.3 0.00 0.00 0.00 87 1017.6
20260507010231 75 76 1.7 2.6 0.00 0.00 0.00 87 1017.6
20260507005726 75 70 1.7 2.6 0.00 0.00 0.00 87 1017.7
20260507005221 75 71 0.9 2.6 0.00 0.00 0.00 87 1017.7
20260507004714 75 81 0.9 2.6 0.00 0.00 0.00 87 1017.7
20260507004208 75 89 0.9 2.6 0.00 0.00 0.00 87 1017.7
20260507003923 75 85 0.9 1.7 0.00 0.00 0.00 87 1017.7
20260507003158 75 85 0.9 1.7 0.00 0.00 0.00 87 1017.8
20260507002910 75 85 0.0 1.7 0.00 0.00 0.00 86 1017.8
20260507002143 76 85 0.0 2.6 0.00 0.00 0.00 86 1017.8
20260507001639 76 85 0.9 2.6 0.00 0.00 0.00 86 1017.8
20260507001149 76 86 0.9 2.6 0.00 0.00 0.00 85 1017.9
20260507000635 76 90 0.0 1.7 0.00 0.00 0.00 85 1018.0
20260507000133 77 91 0.9 1.7 0.00 0.00 0.00 85 1017.9
20260506235633 77 91 0.9 1.7 0.00 0.00 0.00 84 1017.8
20260506235134 77 91 0.9 1.7 0.00 0.00 0.00 84 1017.8
20260506234633 77 91 0.9 1.7 0.00 0.00 0.00 84 1017.8
20260506234350 78 91 0.9 2.6 0.00 0.00 0.00 83 1017.8
20260506233628 78 91 1.7 2.6 0.00 0.00 0.00 83 1017.8
20260506233129 78 85 0.9 2.6 0.00 0.00 0.00 82 1017.8
20260506232642 78 75 0.9 1.7 0.00 0.00 0.00 83 1017.9
20260506232129 78 75 0.9 2.6 0.00 0.00 0.00 83 1018.0
20260506231851 78 75 0.9 2.6 0.00 0.00 0.00 83 1017.9
20260506231129 78 84 0.9 2.6 0.00 0.00 0.00 83 1017.8
20260506230851 78 86 1.7 2.6 0.00 0.00 0.00 83 1017.8
20260506230127 78 89 0.9 2.6 0.00 0.00 0.00 83 1017.8
20260506225621 79 89 0.9 1.7 0.00 0.00 0.00 82 1017.7
20260506225114 79 89 0.9 1.7 0.00 0.00 0.00 82 1017.7
20260506224619 79 89 0.9 2.6 0.00 0.00 0.00 82 1017.7
20260506224114 80 89 0.9 2.6 0.00 0.00 0.00 82 1017.7
20260506223611 80 83 0.9 2.6 0.00 0.00 0.00 82 1017.7
20260506223112 80 92 0.9 1.7 0.00 0.00 0.00 82 1017.7
20260506222608 80 92 0.0 1.7 0.00 0.00 0.00 81 1017.7
20260506222107 81 92 0.0 0.0 0.00 0.00 0.00 80 1017.8
20260506221607 81 129 0.0 0.0 0.00 0.00 0.00 79 1017.7
20260506221107 81 129 0.0 0.9 0.00 0.00 0.00 78 1017.7
20260506220619 81 129 0.0 0.9 0.00 0.00 0.00 79 1017.7
20260506220327 81 129 0.0 0.9 0.00 0.00 0.00 79 1017.7
20260506215607 81 134 0.0 0.0 0.00 0.00 0.00 79 1017.8
20260506215102 82 134 0.0 0.0 0.00 0.00 0.00 79 1017.8
20260506214607 82 134 0.0 0.9 0.00 0.00 0.00 78 1017.7
20260506214102 82 134 0.0 0.9 0.00 0.00 0.00 78 1017.6
20260506213602 83 142 0.0 0.9 0.00 0.00 0.00 77 1017.5
20260506213102 83 143 0.0 0.9 0.00 0.00 0.00 76 1017.6
20260506212602 83 143 0.0 1.7 0.00 0.00 0.00 75 1017.5
20260506212104 84 143 0.0 1.7 0.00 0.00 0.00 74 1017.6
20260506211602 84 143 0.0 1.7 0.00 0.00 0.00 74 1017.5
20260506211103 85 143 0.0 0.9 0.00 0.00 0.00 73 1017.5
20260506210819 85 143 0.0 1.7 0.00 0.00 0.00 72 1017.6
20260506210109 85 143 0.0 1.7 0.00 0.00 0.00 71 1017.6
20260506205559 86 127 0.0 0.0 0.00 0.00 0.00 70 1017.7
20260506205059 86 127 0.0 0.0 0.00 0.00 0.00 69 1017.6
20260506204558 87 124 0.0 0.0 0.00 0.00 0.00 68 1017.4
20260506204332 87 124 0.0 0.0 0.00 0.00 0.00 66 1017.6
20260506203557 88 97 0.0 0.0 0.00 0.00 0.00 65 1017.5
20260506203326 88 96 0.0 0.0 0.00 0.00 0.00 64 1017.5
20260506202605 89 96 0.0 0.0 0.00 0.00 0.00 63 1017.6
20260506202050 89 96 0.0 0.0 0.00 0.00 0.00 63 1017.5
20260506201548 89 96 0.0 0.0 0.00 0.00 0.00 62 1017.6
20260506201325 90 96 0.0 0.0 0.00 0.00 0.00 62 1017.6
20260506200552 90 96 0.0 1.7 0.00 0.00 0.00 61 1017.7
20260506200040 90 96 0.9 2.6 0.00 0.00 0.00 60 1017.7
20260506195534 91 94 0.9 2.6 0.00 0.00 0.00 60 1017.7
20260506195029 91 92 0.9 2.6 0.00 0.00 0.00 58 1017.7
20260506194753 91 63 0.0 2.6 0.00 0.00 0.00 58 1017.7
20260506194014 91 89 0.9 2.6 0.00 0.00 0.00 58 1017.8
20260506193727 91 89 1.7 4.3 0.00 0.00 0.00 58 1017.6
20260506193003 91 77 1.7 4.3 0.00 0.00 0.00 57 1017.8
20260506192456 92 326 1.7 4.3 0.00 0.00 0.00 56 1017.9
20260506191951 92 350 1.7 4.3 0.00 0.00 0.00 56 1017.9
20260506191705 92 51 0.9 4.3 0.00 0.00 0.00 56 1017.9
20260506190938 92 120 1.7 5.2 0.00 0.00 0.00 56 1017.9
20260506190502 92 323 0.9 5.2 0.00 0.00 0.00 55 1017.9
20260506190150 92 355 1.7 5.2 0.00 0.00 0.00 56 1017.8
20260506185426 92 285 2.6 7.0 0.00 0.00 0.00 56 1017.8
20260506184914 92 319 1.7 7.0 0.00 0.00 0.00 56 1017.7
20260506184414 92 327 1.7 5.2 0.00 0.00 0.00 56 1017.7
20260506183902 92 293 2.6 7.0 0.00 0.00 0.00 56 1017.8
20260506183357 92 340 3.5 7.0 0.00 0.00 0.00 56 1017.8
20260506182850 92 214 2.6 6.1 0.00 0.00 0.00 56 1017.9
20260506182344 92 333 1.7 6.1 0.00 0.00 0.00 55 1017.9
20260506181838 92 311 3.5 10.4 0.00 0.00 0.00 56 1018.0
20260506181345 91 300 4.3 10.4 0.00 0.00 0.00 57 1018.1